TimeCDT,TemperatureF,Dew PointF,Humidity,Sea Level PressureIn,VisibilityMPH,Wind Direction,Wind SpeedMPH,Gust SpeedMPH,PrecipitationIn,Events,Conditions,WindDirDegrees,DateUTC
12:15 AM,82.9,66.9,58,30.02,10.0,NW,6.9,-,N/A,Thunderstorm,Mostly Cloudy,310,2013-07-27 05:15:00
12:35 AM,82.4,67.5,60,30.03,10.0,WNW,4.6,-,N/A,Thunderstorm,Overcast,290,2013-07-27 05:35:00
12:55 AM,82.4,67.5,60,30.04,10.0,Calm,Calm,-,N/A,,Overcast,0,2013-07-27 05:55:00
1:15 AM,81.5,68.4,64,30.04,10.0,Calm,Calm,-,N/A,,Overcast,0,2013-07-27 06:15:00
1:35 AM,80.4,69.3,69,30.03,10.0,SW,4.6,-,N/A,,Overcast,230,2013-07-27 06:35:00
1:55 AM,80.8,68.7,67,30.02,10.0,Calm,Calm,-,N/A,,Mostly Cloudy,0,2013-07-27 06:55:00
2:15 AM,80.6,67.6,65,30.02,10.0,Calm,Calm,-,N/A,Thunderstorm,Scattered Clouds,0,2013-07-27 07:15:00
2:35 AM,80.8,68.0,65,30.03,10.0,WNW,3.5,-,N/A,,Clear,290,2013-07-27 07:35:00
2:55 AM,79.3,68.0,68,30.02,10.0,Calm,Calm,-,N/A,,Clear,0,2013-07-27 07:55:00
3:15 AM,78.3,68.0,71,30.02,10.0,North,6.9,-,N/A,,Clear,10,2013-07-27 08:15:00
3:35 AM,78.3,68.4,71,30.01,10.0,North,4.6,-,N/A,,Clear,350,2013-07-27 08:35:00
3:55 AM,77.9,68.4,72,30.00,10.0,North,5.8,-,N/A,,Clear,350,2013-07-27 08:55:00
4:15 AM,77.5,68.2,73,30.00,10.0,North,4.6,-,N/A,,Clear,350,2013-07-27 09:15:00
4:35 AM,76.8,68.2,75,29.99,10.0,North,8.1,-,N/A,,Clear,350,2013-07-27 09:35:00
4:55 AM,76.8,68.0,74,29.99,10.0,NNW,6.9,-,N/A,,Clear,340,2013-07-27 09:55:00
5:15 AM,76.1,67.6,75,29.99,10.0,North,8.1,-,N/A,,Clear,350,2013-07-27 10:15:00
5:35 AM,76.1,67.3,74,30.00,10.0,North,8.1,-,N/A,,Clear,360,2013-07-27 10:35:00
5:55 AM,76.1,67.3,74,30.00,10.0,North,8.1,-,N/A,,Scattered Clouds,10,2013-07-27 10:55:00
6:15 AM,76.1,66.4,72,30.01,10.0,North,9.2,-,N/A,,Clear,10,2013-07-27 11:15:00
6:35 AM,76.1,66.2,71,30.02,10.0,North,11.5,-,N/A,,Clear,360,2013-07-27 11:35:00
6:55 AM,75.7,66.2,72,30.02,10.0,NNE,9.2,-,N/A,,Scattered Clouds,20,2013-07-27 11:55:00
7:15 AM,75.6,66.2,73,30.02,10.0,NNE,5.8,-,N/A,,Clear,30,2013-07-27 12:15:00
7:35 AM,75.7,66.6,73,30.02,10.0,NNE,6.9,-,N/A,,Clear,20,2013-07-27 12:35:00
7:55 AM,76.1,66.9,73,30.04,10.0,NNE,6.9,-,N/A,,Scattered Clouds,20,2013-07-27 12:55:00
8:15 AM,75.9,67.1,74,30.04,10.0,NNE,8.1,-,N/A,,Scattered Clouds,20,2013-07-27 13:15:00
8:35 AM,77.2,67.3,71,30.04,10.0,NE,8.1,-,N/A,,Scattered Clouds,40,2013-07-27 13:35:00
8:55 AM,77.5,67.3,71,30.04,10.0,North,9.2,-,N/A,,Clear,10,2013-07-27 13:55:00
9:15 AM,78.3,67.5,69,30.04,10.0,NE,8.1,-,N/A,,Clear,40,2013-07-27 14:15:00
9:35 AM,79.3,67.3,66,30.05,10.0,NE,8.1,16.1,N/A,,Clear,40,2013-07-27 14:35:00
9:55 AM,79.5,67.3,66,30.04,10.0,NNE,6.9,-,N/A,,Scattered Clouds,20,2013-07-27 14:55:00
10:15 AM,81.5,67.5,62,30.05,10.0,NNE,8.1,-,N/A,,Mostly Cloudy,30,2013-07-27 15:15:00
10:35 AM,80.4,67.3,64,30.05,10.0,NE,6.9,-,N/A,,Mostly Cloudy,40,2013-07-27 15:35:00
10:55 AM,81.1,66.4,61,30.05,10.0,ENE,8.1,-,N/A,,Overcast,70,2013-07-27 15:55:00
11:15 AM,80.8,66.4,61,30.05,10.0,NNE,9.2,-,N/A,,Mostly Cloudy,30,2013-07-27 16:15:00
11:35 AM,82.0,66.6,59,30.05,10.0,NE,10.4,-,N/A,,Mostly Cloudy,40,2013-07-27 16:35:00
11:55 AM,82.2,66.7,59,30.05,10.0,NE,6.9,-,N/A,,Mostly Cloudy,50,2013-07-27 16:55:00
12:15 PM,81.5,66.9,61,30.05,10.0,NNE,11.5,-,N/A,,Mostly Cloudy,20,2013-07-27 17:15:00
12:35 PM,81.5,66.2,60,30.05,10.0,NE,9.2,-,N/A,,Mostly Cloudy,50,2013-07-27 17:35:00
12:55 PM,82.0,65.8,58,30.05,10.0,North,10.4,-,N/A,,Overcast,350,2013-07-27 17:55:00
1:15 PM,84.0,65.5,54,30.04,10.0,NNE,5.8,-,N/A,,Mostly Cloudy,30,2013-07-27 18:15:00
1:35 PM,82.9,65.5,55,30.04,10.0,North,4.6,-,N/A,,Mostly Cloudy,360,2013-07-27 18:35:00
1:55 PM,84.4,64.9,52,30.03,10.0,NNE,3.5,-,N/A,,Mostly Cloudy,30,2013-07-27 18:55:00
2:15 PM,86.2,64.8,49,30.02,10.0,NNE,11.5,-,N/A,,Scattered Clouds,20,2013-07-27 19:15:00
2:35 PM,85.6,64.4,49,30.02,10.0,North,10.4,17.3,N/A,,Scattered Clouds,10,2013-07-27 19:35:00
2:55 PM,86.5,63.7,46,30.01,10.0,North,8.1,17.3,N/A,,Scattered Clouds,350,2013-07-27 19:55:00
3:15 PM,87.6,63.9,45,30.00,10.0,NE,9.2,18.4,N/A,,Scattered Clouds,40,2013-07-27 20:15:00
3:35 PM,86.0,63.3,47,30.00,10.0,North,8.1,-,N/A,,Clear,350,2013-07-27 20:35:00
3:55 PM,88.2,63.5,44,29.99,10.0,North,11.5,16.1,N/A,,Scattered Clouds,10,2013-07-27 20:55:00
4:15 PM,86.7,63.0,45,29.99,10.0,NE,10.4,-,N/A,,Scattered Clouds,40,2013-07-27 21:15:00
4:35 PM,87.1,63.1,45,29.98,10.0,NNE,11.5,17.3,N/A,,Scattered Clouds,20,2013-07-27 21:35:00
4:55 PM,87.8,63.3,44,29.97,10.0,NE,8.1,16.1,N/A,,Scattered Clouds,50,2013-07-27 21:55:00
5:15 PM,86.9,62.6,44,29.96,10.0,NNE,8.1,-,N/A,,Clear,30,2013-07-27 22:15:00
5:35 PM,86.9,63.7,46,29.96,10.0,NE,11.5,-,N/A,,Scattered Clouds,40,2013-07-27 22:35:00
5:55 PM,87.6,61.9,42,29.95,10.0,ENE,9.2,16.1,N/A,,Scattered Clouds,60,2013-07-27 22:55:00
6:15 PM,87.6,62.1,42,29.95,10.0,NE,10.4,16.1,N/A,,Clear,50,2013-07-27 23:15:00
6:35 PM,86.7,61.9,43,29.95,10.0,East,8.1,-,N/A,,Clear,80,2013-07-27 23:35:00
6:55 PM,86.7,61.5,43,29.95,10.0,East,8.1,-,N/A,,Clear,80,2013-07-27 23:55:00
7:15 PM,85.8,61.5,44,29.95,10.0,NE,6.9,17.3,N/A,,Clear,50,2013-07-28 00:15:00
7:35 PM,85.1,60.1,43,29.95,10.0,NE,9.2,-,N/A,,Clear,40,2013-07-28 00:35:00
7:55 PM,84.2,59.2,43,29.96,10.0,East,11.5,-,N/A,,Clear,80,2013-07-28 00:55:00
8:15 PM,83.1,60.1,46,29.96,10.0,ENE,5.8,-,N/A,,Clear,60,2013-07-28 01:15:00
8:35 PM,81.7,60.1,48,29.97,10.0,ENE,6.9,-,N/A,,Clear,70,2013-07-28 01:35:00
8:55 PM,80.8,59.0,47,29.98,10.0,East,4.6,-,N/A,,Clear,80,2013-07-28 01:55:00
9:15 PM,79.7,59.9,51,29.99,10.0,East,4.6,-,N/A,,Clear,100,2013-07-28 02:15:00
9:35 PM,79.0,61.3,55,29.99,10.0,East,3.5,-,N/A,,Clear,100,2013-07-28 02:35:00
9:55 PM,77.9,61.7,57,29.99,10.0,Calm,Calm,-,N/A,,Clear,0,2013-07-28 02:55:00
10:15 PM,76.1,62.8,63,29.99,10.0,ENE,3.5,-,N/A,,Clear,70,2013-07-28 03:15:00
10:35 PM,75.2,63.9,68,30.00,10.0,ENE,3.5,-,N/A,,Clear,70,2013-07-28 03:35:00
10:55 PM,74.3,64.6,72,29.99,10.0,East,3.5,-,N/A,,Clear,90,2013-07-28 03:55:00
11:15 PM,73.2,64.6,74,29.99,10.0,Calm,Calm,-,N/A,,Clear,0,2013-07-28 04:15:00
11:35 PM,72.5,64.6,76,29.99,10.0,ENE,3.5,-,N/A,,Clear,70,2013-07-28 04:35:00
11:55 PM,72.7,64.9,77,29.99,10.0,ENE,4.6,-,N/A,,Clear,70,2013-07-28 04:55:00